Sign-in with your pilot id or email, or register

ICAO: LKMT Name / Country: Ostrava / Mosnov / Czechia
Latitude: 49.6963 Longitude: 18.1111
Total Arrivals:
Strict Standards: Non-static method AirportData::getarrflights() should not be called statically, assuming $this from incompatible context in /var/www/customers/vh-7192/web/home/phpvms/core/templates/airport_info.tpl on line 18
1
Total Departures:
Strict Standards: Non-static method AirportData::getdeptflights() should not be called statically, assuming $this from incompatible context in /var/www/customers/vh-7192/web/home/phpvms/core/templates/airport_info.tpl on line 21
0
Latest Arrival: MTA11P (LHBP-LKMT) Tibor Berces Latest Departure: (-)
Metar: LKMT 240000Z 08002KT 9999 OVC021 02/01 Q0996 NOSIG
More info

Charts for LKMT


NOTAM


Warning: file_get_contents(http://api.vateud.net/notams/LKMT.json): failed to open stream: HTTP request failed! HTTP/1.1 404 Not Found in /var/www/customers/vh-7192/web/home/phpvms/core/common/NOTAMSData.class.php on line 18

Warning: Invalid argument supplied for foreach() in /var/www/customers/vh-7192/web/home/phpvms/core/common/NOTAMSData.class.php on line 22

Ostrava / Mosnov